OpenBCM V2.0.3 (Linux)

Packet Radio Mailbox

IZ3LSV

[San Dona' di P. JN]

 Login: GUEST





  
I0OJJ  > AMSAT    08.06.26 02:32l 329 Lines 15514 Bytes #999 (0) @ WW
BID : 267_IR0EQ
Read: GUEST
Subj: 2Line Orbital Elements
Path: IZ3LSV<I0OJJ<IR0EQ
Sent: 260608/0025z @:IR0EQ.ITA.EU [Rome] $:267_IR0EQ

>From i0ojj%ir0eq.ita.eu@i0ojj.ampr.org Mon Jun  8 02:28:43 2026
Received: from i0ojj.ampr.org by i0ojj.ampr.org (JNOS2.0q.1) with SMTP
	id AA17062063 ; Mon, 08 Jun 2026 02:28:43 +0200
Message-Id: <267_IR0EQ@i0ojj.bbs>
>From: i0ojj@ir0eq.ita.eu
X-JNOS-User-Port: Telnet   (i0ojj @ 44.27.18.9)  ->   Sending message

>From i0ojj@rgate.ampr.org Mon Jun  8 02:25:43 2026
Received: from rgate.ampr.org by rgate.ampr.org (JNOS2.0q.1) with SMTP
	id AA2815 ; Mon, 08 Jun 2026 02:25:43 +0200
Received: by rgate.ampr.org with SMTP
	id AA2812 ; Mon, 08 Jun 2026 02:25:29 +0200
Message-Id: <2813@rgate.ampr.org>
>From: i0ojj@rgate.ampr.org

SB KEPS @ AMSAT  $ORB26159.1
2Line Orbital Elements 26159.AMSAT

QST de W1STR

AMSAT Orbital Elements for Amateur Satellites in TLE Format
>From Orbital Analysis Office
New England Sci-Tech STEM Education Center
Natick MA June 08, 2026
To all radio amateurs


These element sets describe the orbits of various satellites 
in use by the amateur radio community. For details see:
www.amsat.org/keplerian-elements-formats/

A daily update of element sets is available at:
www.amsat.org/tle/daily-bulletin.txt
or without bulletin text:
www.amsat.org/tle/dailytle.txt


AO-07
1 07530U 74089B   26157.94104381 -.00000046  00000-0  45809-5 0  9996
2 07530 101.9901 171.0806 0012469 149.2350 327.1489 12.53697893359236
UO-11
1 14781U 84021B   26158.15325762  .00001194  00000-0  12717-3 0  9995
2 14781  97.8052 123.8404 0006728 206.8007 153.2864 14.90758666255634
AO-27
1 22825U 93061C   26158.14059956  .00000125  00000-0  64541-4 0  9991
2 22825  98.6881 225.5574 0009348 125.8685 234.3367 14.30939726705565
FO-29
1 24278U 96046B   26158.32988280 -.00000018  00000-0  14338-4 0  9993
2 24278  98.5249   8.5522 0350731 121.9451 241.6299 13.53273665471833
GO-32
1 25397U 98043D   26157.59817634  .00000069  00000-0  49896-4 0  9999
2 25397  99.0065 150.0898 0000464 193.9791 166.1374 14.24426350449827
ISS
1 25544U 98067A   26158.32089647  .00008946  00000-0  16649-3 0  9997
2 25544  51.6340 348.9335 0006961 143.5924 216.5539 15.49651405570223
NO-44
1 26931U 01043C   26158.03172196  .00000144  00000-0  84457-4 0  9991
2 26931  67.0513 270.5377 0006114 264.2212  95.8193 14.31952522288992
SO-50
1 27607U 02058C   26158.24267670  .00001225  00000-0  16136-3 0  9993
2 27607  64.5504 159.7532 0075455 264.2954  94.9545 14.83025886262986
CO-55
1 27844U 03031E   26157.49994927  .00000321  00000-0  15775-3 0  9990
2 27844  98.6735 166.1932 0008851 210.1158 149.9513 14.24329258190151
RS-22
1 27939U 03042A   26158.56300939  .00001355  00000-0  21690-3 0  9991
2 27939  98.3472 342.6498 0010215 303.9342  84.6334 14.73451912214130
CO-65
1 32785U 08021C   26158.23858507  .00006197  00000-0  39187-3 0  9990
2 32785  97.8270 139.4511 0010393  67.8942 292.3389 15.09355323983693
CO-66
1 32791U 08021J   26157.55833225  .00023420  00000-0  75009-3 0  9992
2 32791  97.7518 154.9517 0002602  35.3933 324.7480 15.32385592985664
RS-30
1 32953U 08025A   26158.52157465  .00000029  00000-0  14092-3 0  9994
2 32953  82.5046   1.4537 0019274 335.6145  24.4021 12.43178975818499
SRMSAT
1 37841U 11058D   26157.27188351  .00000385  00000-0  65061-4 0  9992
2 37841  19.9704 125.5359 0011947  84.3565  18.6414 14.11573396756279
ZACUBE-1
1 39417U 13066B   26158.14216119  .00004465  00000-0  34772-3 0  9992
2 39417  97.8099 120.4248 0039960 283.1130  76.5636 15.01125110679220
Delfi-N3xt
1 39428U 13066N   26158.27230733  .00006607  00000-0  57867-3 0  9996
2 39428  97.8344  78.5936 0072764 239.1159 120.2891 14.94989492673140
GOMX-1
1 39430U 13066Q   26158.51656233  .00002574  00000-0  38929-3 0  9990
2 39430  97.6491 359.5890 0130098 108.2777 253.2636 14.69424459668497
LO-74
1 39440U 13066AA  26156.80918561  .00005560  00000-0  51354-3 0  9991
2 39440  97.8908 105.7402 0059435  65.9901 294.7524 14.93668030675290
AO-73
1 39444U 13066AE  26158.17904856  .00007594  00000-0  47302-3 0  9996
2 39444  97.8278 129.4171 0034673 235.9808 123.8126 15.09372001678158
DTUSAT-2
1 40030U 14033W   26158.26438546  .00008042  00000-0  43566-3 0  9999
2 40030  98.0871 155.3626 0006150 267.8687  92.1839 15.14891810651187
LILACSAT-2
1 40908U 15049K   26158.46753525  .00017970  00000-0  30945-3 0  9997
2 40908  97.4658 194.9414 0005291 292.6432  67.4260 15.51123453594248
Horyu-4
1 41340U 16012D   26158.28323697  .00308228  00000-0  10049-2 0  9993
2 41340  30.9849 151.3730 0002759 206.2539 153.7981 15.88791967569237
Lapan A3
1 41603U 16040E   26158.53108374  .00003626  00000-0  11575-3 0  9997
2 41603  97.1490 154.9947 0011847  56.9581 303.2798 15.33043689553333
CAS-2T
1 41847U 16066G   26158.19760566  .00002042  00000-0  29345-3 0  9999
2 41847  98.3816 234.0479 0342426 159.7048 201.8144 14.44661881503354
TechnoSat
1 42829U 17042E   26158.00974720  .00003117  00000-0  22364-3 0  9992
2 42829  97.4271 316.0569 0018923 126.2064 234.0916 15.04893849485172
AO-91
1 43017U 17073E   26158.35158985  .00010183  00000-0  44421-3 0  9990
2 43017  97.4717  25.7680 0151029   3.3668 356.8542 15.12554864463900
S-Net D
1 43186U 18014G   26158.23535733  .00005577  00000-0  28879-3 0  9990
2 43186  97.5365  63.0881 0009744  60.1321 300.0879 15.16577805457257
S-Net B
1 43187U 18014H   26158.24661594  .00005353  00000-0  27750-3 0  9996
2 43187  97.5372  63.0855 0010325  55.8139 304.4071 15.16548674457256
S-Net A
1 43188U 18014J   26158.23428791  .00005626  00000-0  29119-3 0  9990
2 43188  97.5380  63.2802 0010216  56.3941 303.8265 15.16585449457255
S-Net C
1 43189U 18014K   26158.25044131  .00005394  00000-0  27958-3 0  9996
2 43189  97.5395  63.3700 0011433  49.3429 310.8795 15.16540740455805
Ten-Koh
1 43677U 18084G   26158.00379638  .00002790  00000-0  21264-3 0  9992
2 43677  98.0783 349.9375 0010407 146.7289 213.4591 15.02900039414635
PO-101
1 43678U 18084H   26158.50000162  .00002860  00000-0  23247-3 0  9992
2 43678  98.1167 354.2880 0011995 202.1577 157.9129 15.00406529414769
QO-100
1 43700U 18090A   26158.20812331  .00000158  00000-0  00000+0 0  9997
2 43700   0.0112  38.9909 0001929  72.2005 245.1501  1.00273643 27570
MinXSS-2
1 43758U 18099A   26158.45131068  .00034216  00000-0  69475-3 0  9994
2 43758  97.4533 234.4557 0006056 297.2360  62.8271 15.46252121412626
AO-95
1 43770U 18099N   26157.13129568  .00016192  00000-0  62215-3 0  9992
2 43770  97.4387 217.4205 0009175  36.3927 323.7934 15.26474352411538
SNUSat 2
1 43782U 18099AA  26158.40429356  .00008319  00000-0  37019-3 0  9990
2 43782  97.4065 211.9391 0009293 338.3006  21.7835 15.21692572411540
SnugLite
1 43784U 18099AC  26157.92145593  .00013189  00000-0  50074-3 0  9993
2 43784  97.3870 212.3040 0001929 359.1575   0.9660 15.26953196411756
ITASat 1
1 43786U 18099AE  26158.40393815  .00007372  00000-0  35533-3 0  9991
2 43786  97.4031 210.1118 0013164  34.0108 326.1968 15.18934825411422
EAGLET 1
1 43790U 18099AJ  26158.39638476  .00004573  00000-0  26326-3 0  9999
2 43790  97.4235 208.3246 0011704  28.0757 332.1104 15.12867249410859
ESEO
1 43792U 18099AL  26157.66998509  .00001460  00000-0  10911-3 0  9991
2 43792  97.3966 195.5086 0012399  16.3590 343.8035 15.04207803410224
JO-97
1 43803U 18099AX  26158.17735531  .00017566  00000-0  54696-3 0  9997
2 43803  97.4132 220.9790 0004222 312.4415  47.6470 15.33336023412098
Suomi 100
1 43804U 18099AY  26157.66489451  .00013933  00000-0  50908-3 0  9994
2 43804  97.4186 218.0992 0008716 323.3067  36.7575 15.28178581411817
ISAT
1 43879U 18111D   26157.60785544  .00106545  00000-0  11444-2 0  9990
2 43879  97.5887  92.0294 0002662  48.8199 311.3288 15.63421581409519
UWE-4
1 43880U 18111E   26157.59884956  .00041427  00000-0  86289-3 0  9994
2 43880  97.5857  85.5068 0007550  22.5436 337.6143 15.45454015409146
Sparrow
1 43881U 18111F   26158.07993177  .00152453  00000-0  11703-2 0  9995
2 43881  97.6121  97.9818 0004867  98.9194 261.2619 15.71590276409787
Prox-1
1 44339U 19036A   26157.74734571  .00016297  00000-0  16040-2 0  9999
2 44339  23.9936 183.9779 0005357 269.3753  90.6132 14.90365640371916
Taurus 1
1 44530U 19059C   26158.52265620  .00007284  00000-0  11678-2 0  9996
2 44530  98.6417 322.7522 0007880 349.8802  10.2244 14.71998381357226
TO-108
1 44881U 19093C   26158.48630904  .00001171  00000-0  13817-3 0  9996
2 44881  97.7528 230.9547 0014847 115.7704 244.5045 14.86503898349972
RS-44
1 44909U 19096E   26157.99794810  .00000012  00000-0  79316-6 0  9994
2 44909  82.5218 346.4772 0217716 167.9357 192.7080 12.79748571301045
SALSAT
1 46495U 20068K   26157.74488443  .00010129  00000-0  35498-3 0  9992
2 46495  97.8851 160.1753 0009050 349.8452  10.2602 15.29647918313763
CSS (TIANHE-1)
1 48274U 21035A   26158.31385418  .00011550  00000-0  14046-3 0  9991
2 48274  41.4697  22.0692 0008749   0.1794 359.9047 15.60382427291623
CUTE
1 49263U 21088D   26158.25432566  .00215241  18946-4  71982-3 0  9995
2 49263  97.4168 256.6103 0007551 250.3246 109.7212 15.90125495260971
TeikyoSat 4
1 49396U 21102B   26157.64692315  .00002021  00000-0  12987-3 0  9999
2 49396  97.3670 187.5400 0011232 336.8376  23.2346 15.09469967251133
Z-Sat
1 49399U 21102E   26158.50946200  .00006562  00000-0  32321-3 0  9991
2 49399  97.3330 194.1267 0014893 282.8502  77.1068 15.18196623251978
KOSEN 1
1 49402U 21102H   26157.65519213  .00008931  00000-0  34215-3 0  9997
2 49402  97.3192 200.0180 0012264 240.6044 119.3971 15.26688334252419
HO-113
1 50466U 21131B   26158.54415304  .00000617  00000-0  20425-3 0  9997
2 50466  98.4975 250.9864 0005196 118.6378 241.5334 14.41349209233720
SNUGLITE 2
1 52899U 22065F   26158.12307238  .00001059  00000-0  20975-3 0  9997
2 52899  98.2192 302.9724 0008543  61.3505 298.8556 14.64329242209521
